Hourly Data Report for October 03, 2017

All times are specified in Local Standard Time (LST). Add 1 hour to adjust for Daylight Saving Time where and when it is observed.

WINDSOR A
ONTARIO

42°16'34.000" N
82°57'19.000" W
189.60 m
6139527
71538
YQG

Download Data

Hourly Data (October 2017)
Hourly Data Report for October 3, 2017
Temp Definition
°C
Dew Point Temp Definition
°C
Rel Hum Definition
%
Wind Dir Definition
10's deg

Wind Spd Definition
km/h
Visibility Definition
km
Stn Press Definition
kPa
Hmdx Definition


Wind Chill Definition


Weather Definition


TIME
00:00 Legend Double Dagger 11.7 11.1 96 13 4 24.1 100.39     LegendNANA
01:00 Legend Double Dagger 11.3 10.9 97 16 6 24.1 100.40     Clear
02:00 Legend Double Dagger 10.6 10.3 98 15 5 24.1 100.41     LegendNANA
03:00 Legend Double Dagger 10.2 9.7 97 14 9 24.1 100.42     LegendNANA
04:00 Legend Double Dagger 10.4 10.0 97 15 9 24.1 100.48     Clear
05:00 Legend Double Dagger 10.9 9.8 93 18 5 24.1 100.54     LegendNANA
06:00 Legend Double Dagger 10.6 9.2 91 17 9 24.1 100.56     LegendNANA
07:00 Legend Double Dagger 10.6 9.7 94 15 5 24.1 100.62     Mainly Clear
08:00 Legend Double Dagger 15.7 13.3 85 16 6 24.1 100.64     LegendNANA
09:00 Legend Double Dagger 20.5 13.0 62 19 16 24.1 100.68     LegendNANA
10:00 Legend Double Dagger 22.9 11.3 47 20 22 24.1 100.69 25   Mainly Clear
11:00 Legend Double Dagger 24.1 11.4 45 20 24 24.1 100.64 26   LegendNANA
12:00 Legend Double Dagger 25.1 11.4 42 20 22 24.1 100.60 27   LegendNANA
13:00 Legend Double Dagger 25.8 12.5 43 21 28 24.1 100.52 28   Mainly Clear
14:00 Legend Double Dagger 27.3 12.9 40 21 21 24.1 100.47 30   LegendNANA
15:00 Legend Double Dagger 27.8 12.2 37 19 25 24.1 100.39 30   LegendNANA
16:00 Legend Double Dagger 27.9 12.5 38 18 21 24.1 100.34 30   Mostly Cloudy
17:00 Legend Double Dagger 27.1 12.5 40 18 18 24.1 100.36 30   LegendNANA
18:00 Legend Double Dagger 24.1 13.5 51 16 14 24.1 100.35 27   LegendNANA
19:00 Legend Double Dagger 21.1 14.6 66 16 12 24.1 100.36 25   Mainly Clear
20:00 Legend Double Dagger 19.3 14.9 75 17 9 24.1 100.39     LegendNANA
21:00 Legend Double Dagger 21.9 15.2 65 18 9 24.1 100.41 26   LegendNANA
22:00 Legend Double Dagger 24.0 13.9 53 21 17 24.1 100.39 27   Mostly Cloudy
23:00 Legend Double Dagger 23.2 13.7 55 21 20 19.3 100.38 26   LegendNANA

Notes on Data Quality.

Legend

  • E = Estimated
  • M = Missing
  • NA = Not Available
  • ‡ = Partner data that is not subject to review by the National Climate Archives
Date modified: